Location: Unspecified
(0.0000°N, 0.0000°E)
Time: 20:27:57
(UTC+00:00)

Vanguard 2 Rocket - All Passes

Search period start: 16 September 2019 00:00
Search period end: 26 September 2019 00:00
Orbit: 554 x 3327 km, 32.9° (Epoch: 16 September)

Date Brightness Start Highest point End Pass type
(mag) Time Alt. Az. Time Alt. Az. Time Alt. Az.
16 Sep - 01:29:14 10° N 01:35:26 24° NE 01:44:39 10° E visible
16 Sep - 03:39:52 10° NW 03:49:57 86° NE 04:07:42 10° SE visible
16 Sep - 05:55:00 10° W 06:08:07 42° SSW 06:26:26 10° SE daylight
16 Sep - 08:17:09 10° WSW 08:30:27 22° SSW 08:44:16 10° SSE daylight
16 Sep - 10:43:34 10° SSW 10:55:12 18° S 11:04:53 10° SE daylight
16 Sep - 13:03:38 10° SSW 13:16:36 29° SSE 13:25:06 10° ESE daylight
16 Sep - 15:21:25 10° SW 15:33:21 78° SE 15:39:50 10° ENE daylight
16 Sep - 17:41:49 10° W 17:46:21 17° NW 17:49:48 10° N daylight
17 Sep - 00:33:09 10° NNE 00:35:32 11° NE 00:38:16 10° ENE visible
17 Sep - 02:40:52 10° NW 02:49:21 61° NE 03:04:30 10° ESE visible
17 Sep - 04:54:15 10° WNW 05:05:52 53° SSW 05:24:12 10° SE visible
17 Sep - 07:13:29 10° WSW 07:26:43 26° SSW 07:42:12 10° SSE daylight
17 Sep - 09:39:13 10° SW 09:51:19 18° S 10:02:19 10° SE daylight
17 Sep - 12:01:08 10° SSW 12:14:31 25° SSE 12:24:05 10° ESE daylight
17 Sep - 14:19:14 10° SW 14:32:57 55° SSE 14:40:36 10° ENE daylight
17 Sep - 16:38:32 10° WSW 16:47:03 36° NW 16:52:19 10° NNE daylight
18 Sep - 01:42:26 10° NNW 01:49:19 38° NE 02:00:53 10° ESE visible
18 Sep - 03:54:16 10° WNW 04:04:17 68° SSW 04:21:42 10° SE visible
18 Sep - 06:11:03 10° WSW 06:23:31 31° SSW 06:40:01 10° SE daylight
18 Sep - 08:34:47 10° SW 08:47:09 19° S 08:59:30 10° SSE daylight
18 Sep - 10:58:16 10° SSW 11:11:40 22° SSE 11:22:13 10° ESE daylight
18 Sep - 13:16:58 10° SW 13:31:54 42° SSE 13:40:49 10° E daylight
18 Sep - 15:35:45 10° WSW 15:47:32 64° NW 15:54:01 10° NE daylight
19 Sep - 00:44:43 10° N 00:49:39 21° NE 00:56:41 10° E visible
19 Sep - 02:54:55 10° NW 03:03:24 90° NE 03:18:59 10° SE visible
19 Sep - 05:09:42 10° W 05:20:56 38° SSW 05:37:43 10° SE visible
19 Sep - 07:30:52 10° SW 07:43:03 21° S 07:56:39 10° SSE daylight
19 Sep - 09:55:04 10° SSW 10:08:07 20° S 10:19:29 10° SE daylight
19 Sep - 12:14:37 10° SW 12:30:09 34° SSE 12:40:23 10° E daylight
19 Sep - 14:33:06 10° SW 14:47:27 85° SSE 14:55:12 10° ENE daylight
19 Sep - 16:54:38 10° W 17:00:55 20° NW 17:05:24 10° N daylight
20 Sep - 01:56:05 10° NW 02:03:11 61° NE 02:16:04 10° ESE visible
20 Sep - 04:09:12 10° W 04:19:01 47° SSW 04:35:20 10° SE visible
20 Sep - 06:27:51 10° WSW 06:39:25 24° SSW 06:53:53 10° SSE daylight
20 Sep - 08:51:39 10° SW 09:04:03 19° S 09:16:01 10° SE daylight
20 Sep - 11:12:10 10° SSW 11:27:41 29° SSE 11:39:07 10° ESE daylight
20 Sep - 13:30:32 10° SW 13:46:44 63° SSE 13:55:53 10° ENE daylight
20 Sep - 15:50:49 10° WSW 16:01:25 39° NW 16:07:43 10° NNE daylight
21 Sep - 00:57:47 10° NNW 01:03:30 35° NE 01:12:54 10° ESE visible
21 Sep - 03:09:25 10° WNW 03:17:48 62° SSW 03:32:55 10° SE visible
21 Sep - 05:25:51 10° WSW 05:36:28 28° SSW 05:51:14 10° SSE visible
21 Sep - 07:48:14 10° SW 07:59:48 19° S 08:12:12 10° SE daylight
21 Sep - 10:09:41 10° SSW 10:24:32 24° SSE 10:36:51 10° ESE daylight
21 Sep - 12:28:04 10° SW 12:45:19 48° SSE 12:55:57 10° E daylight
21 Sep - 14:47:29 10° WSW 15:01:34 64° NW 15:09:19 10° NE daylight
21 Sep - 17:13:15 10° NW 17:14:59 11° NW 17:16:34 10° NNW daylight
22 Sep - 00:00:18 10° N 00:04:07 18° NE 00:09:12 10° E night (unlit)
22 Sep - 02:10:11 10° WNW 02:17:17 85° SW 02:30:29 10° SE visible
22 Sep - 04:24:46 10° W 04:34:12 33° SSW 04:48:46 10° SE visible
22 Sep - 06:45:11 10° SW 06:55:50 19° S 07:08:26 10° SSE daylight
22 Sep - 09:07:10 10° SSW 09:20:48 21° SSE 09:33:29 10° SE daylight
22 Sep - 11:25:44 10° SW 11:43:11 39° SSE 11:55:18 10° E daylight
22 Sep - 13:44:27 10° SW 14:01:09 89° SE 14:10:22 10° NE daylight
22 Sep - 16:06:54 10° W 16:15:16 23° NW 16:20:55 10° N daylight
23 Sep - 01:11:26 10° NW 01:17:23 62° NE 01:28:02 10° ESE visible
23 Sep - 03:24:28 10° W 03:32:40 41° SSW 03:46:28 10° SE visible
23 Sep - 05:42:45 10° SW 05:52:27 21° SSW 06:05:03 10° SSE daylight
23 Sep - 08:04:41 10° SSW 08:16:42 19° S 08:29:08 10° SE daylight
23 Sep - 10:23:34 10° SW 10:40:26 32° SSE 10:53:42 10° E daylight
23 Sep - 12:41:42 10° SW 13:00:02 68° SSE 13:10:53 10° ENE daylight
23 Sep - 15:02:37 10° WSW 15:15:26 41° NW 15:23:00 10° NNE daylight
24 Sep - 00:13:13 10° NNW 00:18:00 33° NE 00:25:27 10° ESE night (unlit)
24 Sep - 02:24:47 10° WNW 02:31:47 54° SSW 02:44:21 10° SE visible
24 Sep - 04:41:06 10° WSW 04:49:49 24° SSW 05:02:08 10° SSE visible
24 Sep - 07:02:17 10° SW 07:12:36 18° S 07:24:17 10° SE daylight
24 Sep - 09:21:36 10° SSW 09:37:07 26° SSE 09:50:57 10° ESE daylight
24 Sep - 11:39:16 10° SW 11:58:14 53° SSE 12:10:45 10° ENE daylight
24 Sep - 13:58:54 10° WSW 14:15:12 64° NW 14:24:26 10° NE daylight
24 Sep - 16:24:41 10° WNW 16:29:22 14° NW 16:33:08 10° NNW daylight
24 Sep - 23:15:55 10° N 23:18:46 15° NE 23:22:15 10° ENE night (unlit)
25 Sep - 01:25:36 10° WNW 01:31:34 78° SSW 01:42:23 10° SE visible
25 Sep - 03:40:13 10° WSW 03:47:55 27° SSW 03:59:45 10° SSE visible
25 Sep - 06:00:04 10° SW 06:08:54 17° S 06:19:39 10° SSE daylight
25 Sep - 08:19:52 10° SSW 08:33:21 22° SSE 08:46:53 10° ESE daylight
25 Sep - 10:37:10 10° SW 10:55:48 42° SSE 11:09:47 10° E daylight
25 Sep - 12:55:41 10° SW 13:14:21 87° NW 13:25:18 10° NE daylight
25 Sep - 15:18:43 10° W 15:29:19 27° NW 15:36:17 10° NNE daylight
